India Forums Logo

Geet - Hui Sabse Parayee

India Forums > Forum Index > Geet - Hui Sabse Parayee
Geet is a happy, lively, fun loving girl who hails from a small town in Punjab. She belongs to a close-knit, traditionalist family which upholds honor, respect and dignity above all else.
<< | 1 | 2 | 3 | 4 | 5 | 6 | 7 | 8 | 9 | 10 | 11 | 12 | 13 | 14 | 15 | 16 | 17 | 18 | 19 | ... >>
TIDTopic SubjectStart DateLast Entry
1403934HA HA LOVE U MANNEET5/27/2010 1:03:20 PM5/27/2010 1:03:20 PM
1404026Once again Geet took Maan's "seekh"!5/27/2010 3:39:40 PM5/27/2010 4:38:35 PM
1404063Where's Maan going?5/27/2010 5:31:48 PM5/28/2010 4:29:21 AM
1404074Mann & Geet ''Maneet'' VM5/27/2010 5:59:43 PM6/1/2010 8:35:47 AM
1404080Maan is affecting ME5/27/2010 6:12:39 PM5/28/2010 6:46:01 AM
1404153Rajji supports Gurvinder5/27/2010 9:54:02 PM5/27/2010 9:54:02 PM
1404209jhoothi geet5/28/2010 12:23:22 AM5/29/2010 11:52:22 AM
1404220mr.attitude's loosing his heart5/28/2010 12:31:42 AM5/29/2010 4:53:05 AM
1404223geet to go off air:s5/28/2010 12:35:51 AM5/28/2010 11:13:05 AM
1404260daily soaps?5/28/2010 2:01:15 AM5/28/2010 2:01:15 AM
1404365My first call at the Golden Temple5/28/2010 5:15:01 AM5/28/2010 5:55:48 AM
1404383'Geet' Likely To Go Off Air (Article)5/28/2010 6:16:46 AM5/29/2010 1:32:13 AM
1404398Geet The best show-lets vote5/28/2010 6:41:31 AM5/28/2010 7:16:55 AM
1404544IRONY-hum kabhie nahi milengay5/28/2010 10:42:51 AM5/30/2010 7:28:44 PM
1404555"agar bhul jaate toh insaan ban jaate"5/28/2010 10:54:41 AM5/29/2010 7:52:33 AM
1404561Oi hoi! Maan wearing white :D5/28/2010 11:00:39 AM5/29/2010 3:50:53 AM
140456328TH May 2010 - Geet5/28/2010 11:02:15 AM5/28/2010 8:54:38 PM
1404569Monday's going to be lethal5/28/2010 11:07:09 AM5/29/2010 9:10:04 PM
1404572truly great acting by geet.5/28/2010 11:12:21 AM5/28/2010 11:12:21 AM
1404576i just loved d dialogue5/28/2010 11:15:18 AM5/29/2010 12:19:49 AM
1404589Geet should run away...5/28/2010 11:37:50 AM5/28/2010 11:04:17 PM
1404609will geet elope to save her child?5/28/2010 12:03:27 PM5/28/2010 10:27:39 PM
1404624MAAN and GEET5/28/2010 12:23:50 PM5/28/2010 10:38:26 PM
1404698SBS for Geet5/28/2010 2:08:21 PM5/28/2010 3:27:28 PM
1404746Father??5/28/2010 4:05:46 PM5/31/2010 2:41:10 PM
1404756Geet - Summary of the show till now!5/28/2010 4:38:09 PM6/1/2010 12:20:33 PM
1404787Rajji supports Gurvinder - ARTICLE5/28/2010 7:18:56 PM5/28/2010 7:57:53 PM
1404841maan's feelings5/28/2010 10:09:13 PM5/30/2010 6:17:27 AM
1404909MAAN AND BRIJ CHEMSITRY-LMFAAOOO5/29/2010 12:51:48 AM5/30/2010 10:37:22 AM
1404921Maan ki Yaadaash ko kya hogaya?5/29/2010 1:14:48 AM5/29/2010 3:35:10 PM
1404959new electrifying jodi5/29/2010 3:21:15 AM5/30/2010 9:13:20 AM
1404983Delhi-mystery will unfold5/29/2010 4:28:38 AM5/30/2010 10:06:18 PM
1404996Maaneet- Yeh kya ho raha hai? July 6th epi pg. 265/29/2010 5:01:28 AM7/11/2010 5:51:25 AM
1405021Most dramatic weddings5/29/2010 6:22:25 AM5/29/2010 9:33:22 AM
1405025Lead actors defend Geet TB Article5/29/2010 6:25:18 AM5/29/2010 6:32:07 AM
1405032lead actors defend geet:-article5/29/2010 6:34:12 AM5/29/2010 6:34:12 AM
1405037Written Update 28th May :)5/29/2010 6:54:42 AM5/30/2010 7:11:08 PM
1405146plzz help...5/29/2010 11:30:56 AM5/29/2010 11:30:56 AM
1405175Hey Guys Join the Maneet 4Lyf Group5/29/2010 12:24:31 PM7/7/2010 12:26:18 AM
1405267CVs-Maaneet scenes for the future: UPDATED pg.315/29/2010 4:54:30 PM12/1/2010 8:04:02 PM
1405338cv's a request5/30/2010 12:40:15 AM6/30/2010 1:00:04 PM
1405413Gurmeet Spotted-:)5/30/2010 5:20:23 AM9/29/2010 6:57:11 AM
1405498Geet's escape from Brij5/30/2010 10:35:41 AM5/31/2010 6:20:31 AM
1405522*||*Geet Of The Week [2]*||*5/30/2010 11:54:29 AM6/5/2010 11:39:23 AM
1405566Rajji & Gurvinder old show5/30/2010 2:30:57 PM5/30/2010 3:36:53 PM
1405577POST QUES TO THE GEET TRIO NOW..TT asked 4 it5/30/2010 3:25:01 PM5/31/2010 4:21:12 PM
1405600Attitude wala Jija and Stupid saala: Maan & Brij5/30/2010 6:32:43 PM5/31/2010 3:50:04 AM
1405717hi5/31/2010 2:36:39 AM5/31/2010 11:21:38 PM
1405793Nawww Maan is falling for geet5/31/2010 4:23:59 AM5/31/2010 7:20:39 AM
1405836Geet does not respect her Family!5/31/2010 6:12:04 AM6/9/2010 9:56:08 PM
1405949no update?5/31/2010 9:58:15 AM5/31/2010 11:12:42 AM
1405967wat happened today?5/31/2010 10:14:31 AM6/1/2010 10:33:39 AM
14059685/31 Geet update - highlights done5/31/2010 10:14:36 AM6/1/2010 8:11:18 AM
1406008MaanEet's Common Factor-DYSFUNCTIONAL FAMILIES5/31/2010 10:56:55 AM5/31/2010 11:51:56 AM
1406014GEET not Dead5/31/2010 11:04:34 AM6/1/2010 9:35:24 AM
1406015Dar ji and brij are disgusting5/31/2010 11:04:54 AM5/31/2010 11:23:12 PM
1406017Brij talks about honorrr?5/31/2010 11:05:21 AM5/31/2010 11:24:58 AM
1406027So sad :( Taveez thrown away5/31/2010 11:14:33 AM5/31/2010 11:50:04 AM
1406063Missing Talwar from briji hands?!5/31/2010 11:49:19 AM6/1/2010 9:39:55 AM
1406065Geet runs away finally...5/31/2010 11:57:24 AM6/1/2010 9:50:14 AM
1406066My prediction...5/31/2010 11:59:21 AM6/1/2010 9:21:05 AM
1406068maan singh khurana...SAADDUUU5/31/2010 12:02:18 PM10/23/2010 10:33:57 AM
1406071Maan SMILED today5/31/2010 12:04:41 PM8/9/2010 8:14:47 PM
1406086Who do you want to die in the show? :D5/31/2010 12:21:52 PM6/1/2010 10:08:35 PM
1406106FF DIL KYA KARE PYAR THO HONA HAI THA5/31/2010 12:44:33 PM6/1/2010 4:36:45 AM
1406385wat is ur opinion abt brij's look?6/1/2010 12:44:18 AM6/1/2010 4:40:37 AM
1406436wat song would u want as bakgroun music for Maneet6/1/2010 2:43:10 AM6/1/2010 8:08:20 AM
1406519Article on Brij aka Beizaad- The new bad boy!!!6/1/2010 4:42:17 AM6/2/2010 1:07:52 PM
1406524I wanted To Kill Dev6/1/2010 4:53:46 AM6/2/2010 1:08:14 PM
1406556hyderabad times6/1/2010 5:52:10 AM6/2/2010 9:00:45 AM
1406595DOTW: Feelings6/1/2010 6:57:15 AM6/3/2010 10:26:43 PM
1406708wat happened today??6/1/2010 10:01:15 AM6/1/2010 11:34:26 AM
14067396/1 Geet Episode Update - completed6/1/2010 10:26:55 AM6/2/2010 8:24:50 AM
1406772Maan ne kya maara Brij ko!6/1/2010 10:53:30 AM6/1/2010 11:59:22 AM
1406785Maan's Golden dialogue for Brij-omg6/1/2010 11:05:44 AM6/2/2010 4:08:28 PM
<< | 1 | 2 | 3 | 4 | 5 | 6 | 7 | 8 | 9 | 10 | 11 | 12 | 13 | 14 | 15 | 16 | 17 | 18 | 19 | ... >>